Left ArrowRight Arrow

39.12711, -84.51439

Hourly Observations for June 14, 2024

Temp ( °F °C ) Dew Point ( °F °C ) Humidity (%) Winds ( mph kmh ) Pressure ( in mb ) Visibility ( mi km ) Precip ( " mm )
12:53 am 00:53 Mostly Cloudy 69 20.6 62 16.7 78 78 E 3 6 29.94 1014 10 16 0.00 0.00
1:53 am 01:53 Mostly Cloudy 69 20.6 63 17.2 81 81 S 8 13 29.94 1014 10 16 0.00 0.00
2:53 am 02:53 Cloudy 73 22.8 59 15 61 61 WNW 8 13 29.96 1014 10 16 0.01 0.13
3:53 am 03:53 Mostly Cloudy with Rain 69 20.6 63 17.2 81 81 Calm 29.91 1013 3 5 0.08 2.03
4:53 am 04:53 Partly Cloudy 67 19.4 65 18.3 93 93 SW 5 7 29.88 1012 9 14 0.06 1.52
5:53 am 05:53 Mostly Clear 67 19.4 65 18.3 93 93 WSW 5 7 29.92 1013 10 16 0.01 0.13
6:53 am 06:53 Sunny 68 20 65 18.3 90 90 Calm 29.92 1013 7 11 0.02 0.51
7:53 am 07:53 Partly Cloudy 69 20.6 66 18.9 90 90 SSW 3 6 29.92 1013 7 11 0.00 0.00
8:53 am 08:53 Mostly Sunny 72 22.2 64 17.8 76 76 Calm 29.94 1014 10 16 0.00 0.00
9:53 am 09:53 Partly Cloudy 75 23.9 65 18.3 71 71 undefined N/A 29.94 1014 10 16 0.00 0.00
10:53 am 10:53 Partly Cloudy 78 25.6 65 18.3 64 64 Calm 29.93 1014 10 16 0.00 0.00
11:53 am 11:53 Mostly Cloudy 82 27.8 67 19.4 60 60 Calm 29.93 1014 10 16 0.00 0.00
12:53 pm 12:53 Partly Cloudy 83 28.3 68 20 61 61 SE 3 6 29.92 1013 10 16 0.00 0.00
1:53 pm 13:53 Mostly Cloudy 83 28.3 65 18.3 55 55 W 9 15 29.91 1013 10 16 0.00 0.00
2:53 pm 14:53 Mostly Cloudy 84 28.9 66 18.9 55 55 Calm 29.91 1013 10 16 0.00 0.00
3:53 pm 15:53 Partly Cloudy 87 30.6 70 21.1 57 57 W 7 11 29.90 1013 10 16 0.00 0.00
4:53 pm 16:53 Partly Cloudy 88 31.1 69 20.6 54 54 NNE 7 11 29.89 1012 10 16 0.00 0.00
5:53 pm 17:53 Sunny 86 30 65 18.3 50 50 Calm 29.88 1012 10 16 0.00 0.00
6:53 pm 18:53 Sunny 87 30.6 64 17.8 46 46 NNW 10 17 29.88 1012 10 16 0.00 0.00
7:53 pm 19:53 Sunny 86 30 62 16.7 45 45 NNW 8 13 29.90 1013 10 16 0.00 0.00
8:53 pm 20:53 Sunny 83 28.3 60 15.6 46 46 NNW 6 9 29.92 1013 10 16 0.00 0.00
9:53 pm 21:53 Clear 75 23.9 63 17.2 66 66 Calm 29.93 1014 10 16 0.00 0.00
10:53 pm 22:53 Clear 75 23.9 61 16.1 62 62 NE 7 11 29.97 1015 10 16 0.00 0.00
11:53 pm 23:53 Clear 72 22.2 58 14.4 61 61 NNE 6 9 29.99 1016 10 16 0.00 0.00

Powered by Vaisala Xweather